Colby, KS

4:00 PM CST on November 21, 2017 (GMT -0600)
Shaltz

Weather History for KCBK - October, 2013

Change the Weather History Date:

Monday, October 14, 2013

  Actual Average (KGLD) Record (KGLD)
Temperature  
Mean Temperature 56 °F -  
Max Temperature 69 °F 67 °F 92 °F (1968)
Min Temperature 41 °F 38 °F 22 °F (1914)
Degree Days  
Heating Degree Days 10    
Growing Degree Days 6 (Base 50)    
Moisture  
Dew Point 51 °F    
Average Humidity 82    
Maximum Humidity 100    
Minimum Humidity 46    
Precipitation  
Precipitation 0.00 in - - ()
Sea Level Pressure  
Sea Level Pressure 29.92 in    
Wind  
Wind Speed 21 mph (SW)    
Max Wind Speed 34 mph    
Max Gust Speed 46 mph    
Visibility 9 miles    
Events Rain    
Averages and records for this station are not official NWS values.
T = Trace of Precipitation, MM = Missing Value Source: NWS Daily Summary

Daily Weather History Graph

Daily Weather History Graph

Search for Another Location

Airport or City:

Trip Planner

Search our weather history database for the weather conditions in past years. The results will help you decide how hot, cold, wet, or windy it might be!

Date:

Astronomy

Oct. 14, 2013 Rise Set
Actual Time 7:53 AM CDT 7:06 PM CDT
Civil Twilight 7:26 AM CDT 7:33 PM CDT
Nautical Twilight 6:55 AM CDT 8:04 PM CDT
Astronomical Twilight 6:24 AM CDT 8:35 PM CDT
Moon 4:35 PM CDT (10/14) 3:13 AM CDT (10/14)
Length of Visible Light 12h 06m
Length of Day
11h 12m
Waxing Gibbous, 79% of the Moon is Illuminated
Oct 14
Waxing Gibbous
Oct 18
Full
Oct 26
Last Quarter
Nov 3
New
Nov 9
First Quarter

Hourly Weather History & Observations

Time (CDT) Temp. Windchill Dew Point Humidity Pressure Visibility Wind Dir Wind Speed Gust Speed Precip Events Conditions
12:15 AM 59.0 °F - 55.4 °F 88% 30.09 in 10.0 mi SSE 23.0 mph 31.1 mph N/A   Mostly Cloudy
12:35 AM 59.0 °F - 55.4 °F 88% 30.08 in 10.0 mi SSE 20.7 mph 29.9 mph N/A   Overcast
12:55 AM 59.0 °F - 55.4 °F 88% 30.09 in 10.0 mi SSE 20.7 mph 32.2 mph N/A   Overcast
1:15 AM 59.0 °F - 55.4 °F 88% 30.08 in 10.0 mi SSE 24.2 mph 29.9 mph N/A   Overcast
1:35 AM 59.0 °F - 55.4 °F 88% 30.08 in 10.0 mi SSE 20.7 mph 28.8 mph N/A   Overcast
1:55 AM 57.2 °F - 55.4 °F 94% 30.07 in 10.0 mi SSE 20.7 mph 26.5 mph N/A   Overcast
2:15 AM 59.0 °F - 55.4 °F 88% 30.07 in 10.0 mi SSE 21.9 mph 28.8 mph N/A   Overcast
2:35 AM 59.0 °F - 57.2 °F 94% 30.07 in 10.0 mi SSE 19.6 mph 24.2 mph N/A   Overcast
2:55 AM 57.2 °F - 57.2 °F 100% 30.06 in 7.0 mi SSE 18.4 mph 24.2 mph N/A   Overcast
3:15 AM 57.2 °F - 57.2 °F 100% 30.05 in 4.0 mi SSE 20.7 mph 25.3 mph N/A   Overcast
3:35 AM 57.2 °F - 57.2 °F 100% 30.04 in 4.0 mi SSE 21.9 mph 27.6 mph N/A   Overcast
5:15 AM 59.0 °F - 59.0 °F 100% 29.99 in 5.0 mi SSE 15.0 mph 21.9 mph N/A   Overcast
5:35 AM 59.0 °F - 59.0 °F 100% 29.98 in 7.0 mi SSE 17.3 mph 24.2 mph N/A   Overcast
5:55 AM 59.0 °F - 59.0 °F 100% 29.97 in 5.0 mi SSE 13.8 mph 19.6 mph N/A   Overcast
6:15 AM 59.0 °F - 59.0 °F 100% 29.96 in 7.0 mi SSE 16.1 mph 23.0 mph N/A   Overcast
6:35 AM 59.0 °F - 59.0 °F 100% 29.95 in 5.0 mi SSE 18.4 mph - N/A   Drizzle
6:55 AM 59.0 °F - 59.0 °F 100% 29.94 in 7.0 mi SSE 16.1 mph 21.9 mph N/A   Overcast
7:15 AM 59.0 °F - 59.0 °F 100% 29.93 in 7.0 mi South 16.1 mph 20.7 mph N/A Rain Light Rain
7:35 AM 59.0 °F - 59.0 °F 100% 29.91 in 7.0 mi South 15.0 mph 23.0 mph N/A   Drizzle
7:55 AM 59.0 °F - 59.0 °F 100% 29.90 in 10.0 mi South 13.8 mph 18.4 mph N/A   Overcast
8:15 AM 59.0 °F - 59.0 °F 100% 29.89 in 7.0 mi South 17.3 mph 21.9 mph N/A Rain Light Rain
8:35 AM 59.0 °F - 59.0 °F 100% 29.90 in 2.0 mi SW 13.8 mph - N/A Rain Light Rain
8:55 AM 59.0 °F - 59.0 °F 100% 29.90 in 4.0 mi South 12.7 mph - N/A Rain Rain
9:15 AM 60.8 °F - 60.8 °F 100% 29.87 in 5.0 mi South 13.8 mph 21.9 mph N/A Rain Light Rain
9:35 AM 60.8 °F - 60.8 °F 100% 29.86 in 7.0 mi South 17.3 mph 25.3 mph N/A   Overcast
9:55 AM 62.6 °F - 60.8 °F 94% 29.86 in 10.0 mi South 17.3 mph 26.5 mph N/A   Mostly Cloudy
10:15 AM 62.6 °F - 62.6 °F 100% 29.85 in 10.0 mi South 16.1 mph 24.2 mph N/A   Overcast
10:35 AM 60.8 °F - 60.8 °F 100% 29.84 in 7.0 mi South 16.1 mph 21.9 mph N/A   Overcast
10:55 AM 62.6 °F - 62.6 °F 100% 29.82 in 7.0 mi South 19.6 mph 26.5 mph N/A   Overcast
11:15 AM 62.6 °F - 62.6 °F 100% 29.81 in 10.0 mi South 19.6 mph 28.8 mph N/A   Overcast
11:35 AM 59.0 °F - 55.4 °F 88% 29.82 in 3.0 mi SSW 23.0 mph 44.9 mph N/A Rain Heavy Rain
11:55 AM 57.2 °F - 55.4 °F 94% 29.79 in 10.0 mi SSE 12.7 mph 17.3 mph N/A Rain Light Rain
12:15 PM 59.0 °F - 55.4 °F 88% 29.79 in 10.0 mi South 16.1 mph 19.6 mph N/A   Scattered Clouds
12:35 PM 60.8 °F - 55.4 °F 82% 29.78 in 10.0 mi SSW 11.5 mph 19.6 mph N/A   Clear
12:55 PM 66.2 °F - 53.6 °F 64% 29.77 in 10.0 mi SSW 24.2 mph 32.2 mph N/A   Clear
1:15 PM 68.0 °F - 51.8 °F 56% 29.75 in 10.0 mi SW 23.0 mph 33.4 mph N/A   Scattered Clouds
1:35 PM 69.8 °F - 51.8 °F 53% 29.75 in 10.0 mi SW 26.5 mph 33.4 mph N/A   Clear
1:55 PM 69.8 °F - 50.0 °F 49% 29.73 in 10.0 mi SW 21.9 mph 29.9 mph N/A   Clear
2:15 PM 69.8 °F - 48.2 °F 46% 29.74 in 10.0 mi West 31.1 mph 41.4 mph N/A   Clear
2:35 PM 66.2 °F - 50.0 °F 56% 29.75 in 10.0 mi West 25.3 mph 36.8 mph N/A   Clear
2:55 PM 66.2 °F - 48.2 °F 52% 29.74 in 10.0 mi West 29.9 mph 38.0 mph N/A   Clear
3:15 PM 66.2 °F - 48.2 °F 52% 29.75 in 10.0 mi WNW 29.9 mph 39.1 mph N/A   Clear
3:35 PM 64.4 °F - 48.2 °F 56% 29.76 in 10.0 mi WNW 31.1 mph 42.6 mph N/A   Clear
3:55 PM 64.4 °F - 46.4 °F 52% 29.77 in 10.0 mi WNW 29.9 mph 41.4 mph N/A   Clear
4:15 PM 64.4 °F - 46.4 °F 52% 29.79 in 10.0 mi WNW 27.6 mph 38.0 mph N/A   Clear
4:35 PM 64.4 °F - 46.4 °F 52% 29.81 in 10.0 mi WNW 32.2 mph 41.4 mph N/A   Clear
4:55 PM 60.8 °F - 50.0 °F 68% 29.83 in 10.0 mi WNW 34.5 mph 43.7 mph N/A   Scattered Clouds
5:15 PM 59.0 °F - 48.2 °F 67% 29.85 in 10.0 mi WNW 33.4 mph 44.9 mph N/A   Clear
5:35 PM 55.4 °F - 46.4 °F 72% 29.87 in 10.0 mi WNW 31.1 mph 42.6 mph N/A   Clear
5:55 PM 53.6 °F - 44.6 °F 72% 29.89 in 10.0 mi WNW 29.9 mph 46.0 mph N/A   Scattered Clouds
6:15 PM 51.8 °F - 42.8 °F 71% 29.90 in 10.0 mi WNW 29.9 mph 42.6 mph N/A   Clear
6:35 PM 50.0 °F - 42.8 °F 76% 29.91 in 10.0 mi WNW 25.3 mph 36.8 mph N/A   Clear
6:55 PM 46.4 °F 38.3 °F 41.0 °F 81% 29.92 in 10.0 mi WNW 23.0 mph 31.1 mph N/A   Clear
7:15 PM 46.4 °F 37.5 °F 41.0 °F 81% 29.93 in 10.0 mi WNW 27.6 mph 33.4 mph N/A   Clear
7:35 PM 46.4 °F 38.5 °F 41.0 °F 81% 29.95 in 10.0 mi NW 21.9 mph 31.1 mph N/A   Clear
7:55 PM 44.6 °F 35.9 °F 39.2 °F 81% 29.97 in 10.0 mi NW 23.0 mph 29.9 mph N/A   Clear
8:15 PM 44.6 °F 35.7 °F 39.2 °F 81% 29.97 in 10.0 mi NW 24.2 mph 28.8 mph N/A   Clear
8:35 PM 44.6 °F 36.1 °F 39.2 °F 81% 29.98 in 10.0 mi NW 21.9 mph 27.6 mph N/A   Clear
8:55 PM 44.6 °F 36.9 °F 39.2 °F 81% 30.01 in 10.0 mi WNW 18.4 mph 28.8 mph N/A   Clear
9:15 PM 44.6 °F 36.9 °F 37.4 °F 76% 30.02 in 10.0 mi WNW 18.4 mph 34.5 mph N/A   Clear
9:35 PM 42.8 °F 33.5 °F 37.4 °F 81% 30.02 in 10.0 mi NW 23.0 mph 29.9 mph N/A   Clear
9:55 PM 42.8 °F 34.0 °F 37.4 °F 81% 30.03 in 10.0 mi WNW 20.7 mph 27.6 mph N/A   Clear
10:15 PM 42.8 °F 33.8 °F 37.4 °F 81% 30.03 in 10.0 mi NW 21.9 mph 29.9 mph N/A   Clear
10:35 PM 42.8 °F 33.5 °F 37.4 °F 81% 30.04 in 10.0 mi NW 23.0 mph 31.1 mph N/A   Clear
10:55 PM 42.8 °F 33.8 °F 37.4 °F 81% 30.05 in 10.0 mi NW 21.9 mph 31.1 mph N/A   Clear
11:15 PM 42.8 °F 34.0 °F 35.6 °F 76% 30.06 in 10.0 mi NW 20.7 mph 29.9 mph N/A   Clear
11:35 PM 42.8 °F 34.0 °F 35.6 °F 76% 30.05 in 10.0 mi NW 20.7 mph 27.6 mph N/A   Clear
11:55 PM 41.0 °F 31.9 °F 35.6 °F 81% 30.05 in 10.0 mi NW 19.6 mph 26.5 mph N/A   Clear